GSAT-16 (40332 NORAD) Tracking and Keplerian Element Data

This shows tracking and keplerian element data for the satellite.

Feedback or suggestion? Click here.




ElementValue
Catalog40332
NameGSAT-16
Epoch Orbit1446
Epoch Day317.70066302
Epoch Year2018
RAAN276.4081
Inclination0.0174
Eccentricity0.0004307
Argument of Perigee210.2812
Mean Anonmoly233.378
Mean Motion1.00271595
Decay Rate8.4E-07
L11 40332U 14078A 18317.70066302 .00000084 00000-0 00000+0 0 9997
L22 40332 0.0174 276.4081 0004307 210.2812 233.3780 1.00271595 14465

Live tracking and technical data element details for GSAT-16 (NORAD 40332). GSAT-16 can be tracked NOW for your location showing map with azimuth and elevation plus other details from your city location.

Track the satellite on the map from your city or location and see movement details for azimuth, elevation, latitude, longitude, range, height, and movement on the map or in text.







IsCatalogInMostPopularTable: catalog: 40332, numindb: 123
Update: records affected: 1



GetName: 40332 GSAT-16

Hit Count: updated at: Fri, 16 Nov 2018 03:38:24 GMT